GW2746 Weather Reports


Display with metric or nautical units.
time (UTC)temp
F
wind
direction
speed
MPH
gust
MPH
rain 1hr
in
rain 24hr
in
rain mn
in
humidity
%
barometer
mb
20260508172126 71 317 2.0 5.0 0.00 0.00 0.00 38 1009.5
20260508171630 71 240 3.0 4.0 0.00 0.00 0.00 38 1009.5
20260508171155 71 189 1.0 4.0 0.00 0.00 0.00 37 1009.6
20260508170623 70 108 1.0 3.0 0.00 0.00 0.00 39 1009.6
20260508170159 70 283 2.0 4.0 0.00 0.00 0.00 38 1009.7
20260508165621 70 216 1.0 6.0 0.00 0.00 0.00 39 1008.7
20260508165137 70 176 3.0 6.0 0.00 0.00 0.00 38 1008.8
20260508164622 69 177 1.0 4.0 0.00 0.00 0.00 39 1008.8
20260508164121 69 329 2.0 4.0 0.00 0.00 0.00 39 1008.9
20260508163644 69 243 3.0 6.0 0.00 0.00 0.00 39 1008.9
20260508163120 69 202 3.0 6.0 0.00 0.00 0.00 39 1008.9
20260508162644 68 241 1.0 6.0 0.00 0.00 0.00 39 1008.8
20260508162118 68 242 2.0 7.0 0.00 0.00 0.00 39 1008.8
20260508161624 68 237 3.0 8.0 0.00 0.00 0.00 40 1008.8
20260508161123 69 251 3.0 8.0 0.00 0.00 0.00 40 1008.9
20260508160632 68 250 2.0 7.0 0.00 0.00 0.00 40 1009.0
20260508160134 68 300 4.0 7.0 0.00 0.00 0.00 41 1009.0
20260508155626 68 246 3.0 7.0 0.00 0.00 0.00 43 1009.0
20260508155125 68 300 3.0 7.0 0.00 0.00 0.00 44 1009.0
20260508154632 68 235 2.0 6.0 0.00 0.00 0.00 45 1009.0
20260508154130 68 268 2.0 6.0 0.00 0.00 0.00 46 1009.0
20260508153621 68 180 1.0 6.0 0.00 0.00 0.00 46 1009.0
20260508153122 68 222 1.0 6.0 0.00 0.00 0.00 44 1009.0
20260508152626 68 199 3.0 6.0 0.00 0.00 0.00 46 1009.0
20260508152147 68 246 3.0 4.0 0.00 0.00 0.00 42 1009.1
20260508151629 68 197 2.0 4.0 0.00 0.00 0.00 40 1009.1
20260508151129 68 221 2.0 4.0 0.00 0.00 0.00 41 1009.1
20260508150633 67 19 1.0 3.0 0.00 0.00 0.00 44 1009.1
20260508150116 66 260 1.0 3.0 0.00 0.00 0.00 44 1009.2
20260508145622 66 260 2.0 3.0 0.00 0.00 0.00 45 1009.2
20260508145126 65 216 0.0 5.0 0.00 0.00 0.00 48 1009.2
20260508144629 64 216 1.0 5.0 0.00 0.00 0.00 47 1009.3
20260508144135 64 245 2.0 4.0 0.00 0.00 0.00 48 1009.4
20260508143621 63 224 1.0 3.0 0.00 0.00 0.00 49 1009.5
20260508143138 63 222 1.0 3.0 0.00 0.00 0.00 50 1009.5
20260508142624 62 229 3.0 4.0 0.00 0.00 0.00 50 1009.6
20260508142122 62 168 1.0 5.0 0.00 0.00 0.00 50 1009.6
20260508141626 61 150 1.0 5.0 0.00 0.00 0.00 50 1009.6
20260508141124 60 135 0.0 5.0 0.00 0.00 0.00 52 1009.6
20260508140627 59 129 2.0 5.0 0.00 0.00 0.00 58 1009.6
20260508140125 58 106 0.0 1.0 0.00 0.00 0.00 61 1009.6
20260508135648 57 106 0.0 0.0 0.00 0.00 0.00 60 1009.7
20260508135126 56 106 0.0 0.0 0.00 0.00 0.00 60 1009.7
20260508134633 55 106 0.0 0.0 0.00 0.00 0.00 62 1009.8
20260508134150 55 106 0.0 0.0 0.00 0.00 0.00 62 1009.8
20260508133633 55 106 0.0 0.0 0.00 0.00 0.00 62 1009.9
20260508133132 54 106 0.0 0.0 0.00 0.00 0.00 64 1009.9
20260508132636 54 106 0.0 0.0 0.00 0.00 0.00 64 1009.8
20260508132119 54 106 0.0 2.0 0.00 0.00 0.00 64 1009.7
20260508131626 54 106 0.0 2.0 0.00 0.00 0.00 64 1009.5
20260508131147 54 106 0.0 1.0 0.00 0.00 0.00 64 1009.5
20260508130632 54 106 0.0 0.0 0.00 0.00 0.00 64 1009.3
20260508130131 54 106 0.0 0.0 0.00 0.00 0.00 63 1009.4
20260508125655 54 106 0.0 0.0 0.00 0.00 0.00 63 1009.3
20260508125131 54 106 0.0 0.0 0.00 0.00 0.00 62 1009.2
20260508124635 54 106 0.0 0.0 0.00 0.00 0.00 61 1009.2
20260508124149 54 106 0.0 1.0 0.00 0.00 0.00 63 1009.3
20260508123639 54 106 1.0 1.0 0.00 0.00 0.00 63 1009.3
20260508123119 53 106 0.0 1.0 0.00 0.00 0.00 63 1009.2
20260508122625 53 106 0.0 1.0 0.00 0.00 0.00 63 1009.2
20260508122124 53 106 0.0 1.0 0.00 0.00 0.00 61 1009.0
20260508121628 53 106 0.0 4.0 0.00 0.00 0.00 62 1009.1
20260508121124 53 106 1.0 4.0 0.00 0.00 0.00 61 1009.2
20260508120629 52 206 1.0 2.0 0.00 0.00 0.00 61 1009.4
20260508120149 52 206 0.0 2.0 0.00 0.00 0.00 61 1009.4
20260508115654 52 206 1.0 4.0 0.00 0.00 0.00 62 1009.4
20260508115154 52 206 0.0 4.0 0.00 0.00 0.00 61 1009.4
20260508114658 53 85 1.0 2.0 0.00 0.00 0.00 61 1009.4
20260508114152 52 85 0.0 2.0 0.00 0.00 0.00 60 1009.2
20260508113635 52 85 1.0 2.0 0.00 0.00 0.00 60 1009.3
20260508113153 52 83 1.0 2.0 0.00 0.00 0.00 58 1009.4
20260508112659 52 83 1.0 1.0 0.00 0.00 0.00 59 1009.2
20260508112153 52 83 0.0 0.0 0.00 0.00 0.00 58 1009.2
20260508111624 52 83 0.0 0.0 0.00 0.00 0.00 58 1009.2
20260508111146 52 83 0.0 2.0 0.00 0.00 0.00 56 1009.3
20260508110633 51 83 0.0 2.0 0.00 0.00 0.00 56 1009.3
20260508110117 51 83 2.0 2.0 0.00 0.00 0.00 57 1009.2
20260508105629 52 83 0.0 1.0 0.00 0.00 0.00 56 1009.3
20260508105128 52 83 0.0 1.0 0.00 0.00 0.00 55 1009.3
20260508104633 52 83 0.0 0.0 0.00 0.00 0.00 54 1009.5
20260508104134 52 83 0.0 0.0 0.00 0.00 0.00 53 1009.4
20260508103623 52 83 0.0 1.0 0.00 0.00 0.00 52 1009.4
20260508103127 52 83 0.0 1.0 0.00 0.00 0.00 51 1009.4
20260508102631 52 83 0.0 1.0 0.00 0.00 0.00 52 1009.3
20260508102153 53 83 0.0 1.0 0.00 0.00 0.00 52 1009.3
20260508101624 53 83 0.0 2.0 0.00 0.00 0.00 52 1009.4
20260508101146 53 83 0.0 2.0 0.00 0.00 0.00 51 1009.6
20260508100614 53 81 0.0 4.0 0.00 0.00 0.00 50 1009.9
20260508100142 54 81 0.0 4.0 0.00 0.00 0.00 49 1010.0
20260508095630 54 75 2.0 5.0 0.00 0.00 0.00 48 1009.9
20260508095152 54 87 2.0 5.0 0.00 0.00 0.00 47 1010.0
20260508094620 54 73 2.0 5.0 0.00 0.00 0.00 48 1009.9
20260508094123 54 59 2.0 4.0 0.00 0.00 0.00 47 1009.8
20260508093646 54 71 1.0 1.0 0.00 0.00 0.00 48 1009.6
20260508093142 55 71 0.0 3.0 0.00 0.00 0.00 48 1009.7
20260508092628 55 71 1.0 3.0 0.00 0.00 0.00 47 1009.8
20260508092129 55 74 2.0 5.0 0.00 0.00 0.00 47 1009.9
20260508091652 55 57 3.0 5.0 0.00 0.00 0.00 46 1010.0
20260508091129 55 96 1.0 2.0 0.00 0.00 0.00 47 1010.0
20260508090654 56 96 1.0 2.0 0.00 0.00 0.00 46 1009.9
20260508090132 56 96 0.0 3.0 0.00 0.00 0.00 46 1010.0
20260508085618 56 96 2.0 3.0 0.00 0.00 0.00 45 1010.0
20260508085117 57 96 0.0 2.0 0.00 0.00 0.00 44 1010.2
20260508084623 57 96 1.0 2.0 0.00 0.00 0.00 42 1010.0
20260508084121 57 96 0.0 3.0 0.00 0.00 0.00 42 1010.0
20260508083625 57 96 0.0 3.0 0.00 0.00 0.00 41 1009.9
20260508083123 57 98 1.0 5.0 0.00 0.00 0.00 42 1009.7
20260508082629 56 181 1.0 3.0 0.00 0.00 0.00 44 1009.6
20260508082124 56 80 1.0 3.0 0.00 0.00 0.00 45 1009.6
20260508081626 56 57 2.0 3.0 0.00 0.00 0.00 44 1009.9
20260508081129 56 60 3.0 3.0 0.00 0.00 0.00 46 1009.9
20260508080616 57 14 0.0 1.0 0.00 0.00 0.00 46 1010.2
20260508080156 57 14 0.0 2.0 0.00 0.00 0.00 45 1010.3
20260508075619 57 14 0.0 2.0 0.00 0.00 0.00 44 1010.5
20260508075137 57 14 1.0 2.0 0.00 0.00 0.00 43 1010.3
20260508074620 57 70 0.0 1.0 0.00 0.00 0.00 43 1009.9
20260508074120 57 70 0.0 1.0 0.00 0.00 0.00 43 1010.1
20260508073627 57 70 0.0 3.0 0.00 0.00 0.00 43 1010.2
20260508073125 57 70 0.0 3.0 0.00 0.00 0.00 42 1009.8
20260508072634 57 48 1.0 5.0 0.00 0.00 0.00 43 1009.8
20260508072113 56 61 1.0 5.0 0.00 0.00 0.00 44 1009.8
20260508071623 56 63 1.0 3.0 0.00 0.00 0.00 46 1009.9
20260508071122 56 63 0.0 0.0 0.00 0.00 0.00 45 1010.2
20260508070626 56 63 0.0 0.0 0.00 0.00 0.00 46 1010.1
20260508070125 56 63 0.0 0.0 0.00 0.00 0.00 45 1010.1
20260508065630 56 63 0.0 0.0 0.00 0.00 0.00 45 1010.2
20260508065130 57 63 0.0 0.0 0.00 0.00 0.00 46 1010.2
20260508064653 57 63 0.0 1.0 0.00 0.00 0.00 45 1010.1
20260508064132 57 63 0.0 2.0 0.00 0.00 0.00 44 1010.3
20260508063635 57 63 0.0 2.0 0.00 0.00 0.00 43 1010.4
20260508063135 57 63 1.0 2.0 0.00 0.00 0.00 41 1010.4
20260508062619 57 63 0.0 1.0 0.00 0.00 0.00 41 1010.4
20260508062137 57 63 0.0 1.0 0.00 0.00 0.00 40 1010.3
20260508061641 57 63 0.0 2.0 0.00 0.00 0.00 41 1010.3
20260508061118 57 63 0.0 6.0 0.00 0.00 0.00 41 1010.1
20260508060630 57 64 0.0 6.0 0.00 0.00 0.00 41 1009.9
20260508060149 57 69 1.0 2.0 0.00 0.00 0.00 42 1010.0
20260508055631 57 69 2.0 2.0 0.00 0.00 0.00 42 1010.1
20260508055130 57 71 1.0 3.0 0.00 0.00 0.00 42 1010.2
20260508054633 57 71 0.0 3.0 0.00 0.00 0.00 42 1010.1
20260508054114 57 63 1.0 3.0 0.00 0.00 0.00 42 1010.1
20260508053622 57 69 0.0 3.0 0.00 0.00 0.00 43 1010.0
20260508053123 57 40 1.0 3.0 0.00 0.00 0.00 44 1010.0
20260508052626 56 40 1.0 3.0 0.00 0.00 0.00 45 1010.0
20260508052122 56 40 0.0 2.0 0.00 0.00 0.00 47 1010.0
20260508051627 56 40 0.0 2.0 0.00 0.00 0.00 48 1010.1
20260508051126 56 40 0.0 1.0 0.00 0.00 0.00 48 1010.1
20260508050617 56 40 0.0 2.0 0.00 0.00 0.00 48 1010.2
20260508050117 55 40 0.0 2.0 0.00 0.00 0.00 47 1010.2
20260508045625 55 40 0.0 2.0 0.00 0.00 0.00 49 1010.3
20260508045126 55 40 1.0 2.0 0.00 0.00 0.00 48 1010.4
20260508044631 55 40 0.0 2.0 0.00 0.00 0.00 49 1010.4
20260508044149 55 40 0.0 2.0 0.00 0.00 0.00 47 1010.4
20260508043631 55 40 0.0 1.0 0.00 0.00 0.00 48 1010.3
20260508043129 55 40 0.0 2.0 0.00 0.00 0.00 48 1010.2
20260508042633 56 40 1.0 2.0 0.00 0.00 0.00 48 1010.3
20260508042150 56 40 1.0 2.0 0.00 0.00 0.00 47 1010.3
20260508041633 56 40 1.0 2.0 0.00 0.00 0.00 47 1010.3
20260508041114 56 40 1.0 2.0 0.00 0.00 0.00 47 1010.4
20260508040622 56 40 0.0 1.0 0.00 0.00 0.00 46 1010.5
20260508040125 57 40 0.0 1.0 0.00 0.00 0.00 46 1010.4
20260508035629 57 40 0.0 2.0 0.00 0.00 0.00 46 1010.2
20260508035127 57 40 1.0 2.0 0.00 0.00 0.00 45 1010.2
20260508034633 57 40 1.0 2.0 0.00 0.00 0.00 44 1010.3
20260508034132 57 40 1.0 2.0 0.00 0.00 0.00 43 1010.3
20260508033621 58 40 1.0 2.0 0.00 0.00 0.00 43 1010.3
20260508033121 58 40 1.0 2.0 0.00 0.00 0.00 43 1010.3
20260508032626 58 40 1.0 2.0 0.00 0.00 0.00 43 1010.3
20260508032126 58 40 1.0 1.0 0.00 0.00 0.00 43 1010.4
20260508031630 58 40 0.0 1.0 0.00 0.00 0.00 43 1010.3
20260508031128 58 40 1.0 1.0 0.00 0.00 0.00 42 1010.3
20260508030633 59 40 0.0 1.0 0.00 0.00 0.00 42 1010.3
20260508030134 59 40 0.0 1.0 0.00 0.00 0.00 43 1010.2
20260508025624 59 40 0.0 1.0 0.00 0.00 0.00 41 1010.1
20260508025122 60 40 0.0 1.0 0.00 0.00 0.00 42 1010.2
20260508024626 60 40 0.0 2.0 0.00 0.00 0.00 41 1010.1
20260508024125 60 40 0.0 2.0 0.00 0.00 0.00 41 1010.1
20260508023631 60 40 1.0 1.0 0.00 0.00 0.00 39 1010.1
20260508023133 61 40 0.0 2.0 0.00 0.00 0.00 40 1010.0
20260508022618 61 40 1.0 2.0 0.00 0.00 0.00 39 1010.0
20260508022118 61 40 1.0 2.0 0.00 0.00 0.00 39 1009.9
20260508021643 62 40 1.0 2.0 0.00 0.00 0.00 39 1009.8
20260508021124 62 40 0.0 1.0 0.00 0.00 0.00 39 1009.8
20260508020627 63 40 0.0 2.0 0.00 0.00 0.00 38 1009.7
20260508020125 63 40 0.0 3.0 0.00 0.00 0.00 37 1009.6
20260508015630 64 40 1.0 3.0 0.00 0.00 0.00 36 1009.6
20260508015115 64 40 0.0 2.0 0.00 0.00 0.00 36 1009.6
20260508014622 64 40 1.0 2.0 0.00 0.00 0.00 34 1009.7
20260508014119 65 40 1.0 2.0 0.00 0.00 0.00 34 1009.6
20260508013624 65 40 1.0 2.0 0.00 0.00 0.00 34 1009.6
20260508013124 66 40 0.0 2.0 0.00 0.00 0.00 33 1009.5
20260508012631 66 40 0.0 2.0 0.00 0.00 0.00 33 1009.5
20260508012129 67 32 0.0 2.0 0.00 0.00 0.00 32 1009.4
20260508011634 67 32 1.0 2.0 0.00 0.00 0.00 32 1009.3
20260508011152 68 32 0.0 4.0 0.00 0.00 0.00 31 1009.3
20260508010636 68 32 1.0 4.0 0.00 0.00 0.00 30 1009.2
20260508010135 68 19 0.0 4.0 0.00 0.00 0.00 30 1009.1
20260508005622 68 70 0.0 3.0 0.00 0.00 0.00 29 1009.1
20260508005120 69 71 1.0 4.0 0.00 0.00 0.00 29 1009.0
20260508004625 69 38 2.0 4.0 0.00 0.00 0.00 28 1009.0
20260508004122 69 278 1.0 4.0 0.00 0.00 0.00 29 1009.0
20260508003628 69 268 1.0 5.0 0.00 0.00 0.00 28 1008.9
20260508003127 69 54 2.0 8.0 0.00 0.00 0.00 28 1008.8
20260508002631 70 316 5.0 8.0 0.00 0.00 0.00 29 1008.8
20260508002148 70 267 6.0 8.0 0.00 0.00 0.00 28 1008.7
20260508001613 71 38 5.0 8.0 0.00 0.00 0.00 29 1008.7
20260508001154 71 271 4.0 8.0 0.00 0.00 0.00 28 1008.7
20260508000619 72 275 5.0 7.0 0.00 0.00 0.00 28 1008.7
20260508000121 72 262 2.0 8.0 0.00 0.00 0.00 29 1008.7
20260507235628 72 337 3.0 8.0 0.00 0.00 0.00 29 1008.7
20260507235127 72 89 2.0 6.0 0.00 0.00 0.00 28 1008.7
20260507234631 72 293 3.0 6.0 0.00 0.00 0.00 28 1008.7
20260507234150 72 335 2.0 8.0 0.00 0.00 0.00 28 1008.8
20260507233632 72 333 4.0 8.0 0.00 0.00 0.00 28 1008.8
20260507233151 72 4 1.0 7.0 0.00 0.00 0.00 29 1008.7
20260507232635 72 303 1.0 8.0 0.00 0.00 0.00 28 1008.7
20260507232130 72 265 5.0 8.0 0.00 0.00 0.00 29 1008.8
20260507231654 72 255 3.0 8.0 0.00 0.00 0.00 28 1008.7
20260507231151 72 254 4.0 9.0 0.00 0.00 0.00 29 1008.7
20260507230631 72 4 3.0 9.0 0.00 0.00 0.00 29 1008.6
20260507230154 73 273 3.0 8.0 0.00 0.00 0.00 27 1008.7
20260507225641 73 58 2.0 8.0 0.00 0.00 0.00 28 1008.6
20260507225118 73 246 3.0 8.0 0.00 0.00 0.00 28 1008.7
20260507224622 73 253 2.0 8.0 0.00 0.00 0.00 27 1008.6
20260507224139 73 303 4.0 7.0 0.00 0.00 0.00 28 1008.7
20260507223622 73 351 4.0 8.0 0.00 0.00 0.00 28 1008.7
20260507223120 72 350 3.0 10.0 0.00 0.00 0.00 28 1008.7
20260507222625 72 19 6.0 10.0 0.00 0.00 0.00 28 1008.7
20260507222125 72 241 5.0 10.0 0.00 0.00 0.00 27 1008.8
20260507221633 72 339 2.0 11.0 0.00 0.00 0.00 29 1008.7
20260507221155 72 254 4.0 11.0 0.00 0.00 0.00 29 1008.7
20260507220617 73 37 2.0 5.0 0.00 0.00 0.00 28 1008.7
20260507220115 73 71 3.0 6.0 0.00 0.00 0.00 29 1008.8
20260507215621 73 289 2.0 7.0 0.00 0.00 0.00 30 1008.8
20260507215124 72 307 4.0 10.0 0.00 0.00 0.00 29 1008.8
20260507214631 72 30 6.0 10.0 0.00 0.00 0.00 28 1008.9
20260507214128 72 262 4.0 11.0 0.00 0.00 0.00 28 1008.9
20260507213632 72 354 5.0 11.0 0.00 0.00 0.00 29 1009.0
20260507213129 72 41 4.0 10.0 0.00 0.00 0.00 29 1009.0
20260507212652 72 328 5.0 10.0 0.00 0.00 0.00 28 1009.0
20260507212130 72 274 5.0 10.0 0.00 0.00 0.00 27 1009.0
20260507211654 73 250 3.0 10.0 0.00 0.00 0.00 26 1009.0
20260507211118 73 202 3.0 10.0 0.00 0.00 0.00 28 1009.1
20260507210642 73 265 3.0 7.0 0.00 0.00 0.00 28 1009.0
20260507210122 72 339 5.0 8.0 0.00 0.00 0.00 29 1009.1
20260507205647 72 300 3.0 10.0 0.00 0.00 0.00 30 1009.2
20260507205145 72 281 7.0 10.0 0.00 0.00 0.00 29 1009.1
20260507204630 72 269 5.0 10.0 0.00 0.00 0.00 31 1009.1
20260507204130 72 335 3.0 10.0 0.00 0.00 0.00 29 1009.3
20260507203634 72 274 5.0 8.0 0.00 0.00 0.00 32 1009.3
20260507203133 72 322 3.0 10.0 0.00 0.00 0.00 31 1009.4
20260507202656 72 277 8.0 10.0 0.00 0.00 0.00 30 1009.4
20260507202115 71 301 3.0 14.0 0.00 0.00 0.00 32 1009.4
20260507201622 71 255 4.0 14.0 0.00 0.00 0.00 29 1009.5
20260507201124 72 318 4.0 10.0 0.00 0.00 0.00 31 1009.5
20260507200628 71 244 4.0 10.0 0.00 0.00 0.00 33 1009.6
20260507200132 71 256 4.0 11.0 0.00 0.00 0.00 32 1009.6
20260507195657 71 258 7.0 11.0 0.00 0.00 0.00 29 1009.6
20260507195133 71 280 7.0 10.0 0.00 0.00 0.00 30 1009.6
20260507194620 70 224 4.0 8.0 0.00 0.00 0.00 36 1009.5
20260507194118 70 263 6.0 9.0 0.00 0.00 0.00 33 1009.6
20260507193625 71 262 5.0 9.0 0.00 0.00 0.00 34 1009.6
20260507193124 71 350 5.0 12.0 0.00 0.00 0.00 34 1009.6
20260507192626 71 239 5.0 11.0 0.00 0.00 0.00 36 1009.6
20260507192124 71 229 4.0 12.0 0.00 0.00 0.00 36 1009.6
20260507191627 71 276 5.0 11.0 0.00 0.00 0.00 36 1009.7
20260507191125 71 269 4.0 10.0 0.00 0.00 0.00 36 1009.6
20260507190650 70 316 5.0 10.0 0.00 0.00 0.00 37 1009.7
20260507190125 70 227 6.0 11.0 0.00 0.00 0.00 36 1009.8
20260507185653 70 296 5.0 11.0 0.00 0.00 0.00 36 1009.7
20260507185128 70 239 3.0 11.0 0.00 0.00 0.00 36 1009.7
20260507184631 70 156 8.0 11.0 0.00 0.00 0.00 37 1009.9
20260507184131 69 283 4.0 12.0 0.00 0.00 0.00 37 1009.9
20260507183634 69 216 6.0 12.0 0.00 0.00 0.00 36 1009.9
20260507183133 69 241 6.0 11.0 0.00 0.00 0.00 37 1010.0
20260507182619 68 233 4.0 12.0 0.00 0.00 0.00 38 1010.2
20260507182117 69 258 5.0 13.0 0.00 0.00 0.00 37 1010.3
20260507181622 69 216 3.0 13.0 0.00 0.00 0.00 37 1010.3
20260507181125 68 223 4.0 13.0 0.00 0.00 0.00 37 1010.3
20260507180631 68 250 7.0 15.0 0.00 0.00 0.00 38 1010.4
20260507180135 68 181 7.0 15.0 0.00 0.00 0.00 38 1010.4
20260507175620 68 292 5.0 14.0 0.00 0.00 0.00 37 1010.4
20260507175122 68 306 5.0 14.0 0.00 0.00 0.00 38 1010.6
20260507174628 68 223 6.0 11.0 0.00 0.00 0.00 38 1010.6
20260507174126 67 219 2.0 8.0 0.00 0.00 0.00 38 1010.6
20260507173631 67 230 4.0 8.0 0.00 0.00 0.00 39 1010.8
20260507173130 67 249 1.0 9.0 0.00 0.00 0.00 40 1010.8
20260507172618 66 333 4.0 9.0 0.00 0.00 0.00 40 1010.8